ACI67 NTAA-NTTG

Flight info

Callsign ACI67
Flight time 0h 42m
Altitude 25000
Route ARITI4W ARITI DCT IKELO DCT ORARE DCT GODOL
Aircraft A320/M-SDE3FGHIRWY/LB1

Departure

Time 2026-05-08 03:07
Airport Fa'a'ā International Airport (NTAA)

Arrival

Time 2026-05-08 03:49
Airport Rangiroa Airport (NTTG)
Time Latitude Longitude Altitude Speed Heading
2026-05-08 02:56 -17.55856 -149.61008 16 ft 0 kts 146°
2026-05-08 02:58 -17.55846 -149.61016 16 ft 3 kts 146°
2026-05-08 02:58 -17.55831 -149.61026 16 ft 3 kts 146°
2026-05-08 02:58 -17.55817 -149.61036 16 ft 2 kts 175°
2026-05-08 02:59 -17.55800 -149.61035 17 ft 3 kts 188°
2026-05-08 02:59 -17.55783 -149.61032 18 ft 3 kts 202°
2026-05-08 02:59 -17.55767 -149.61026 18 ft 1 kts 207°
2026-05-08 02:59 -17.55756 -149.61017 17 ft 2 kts 230°
2026-05-08 03:00 -17.55745 -149.61003 16 ft 2 kts 229°
2026-05-08 03:00 -17.55740 -149.60997 15 ft 0 kts 229°
2026-05-08 03:01 -17.55741 -149.60999 15 ft 2 kts 229°
2026-05-08 03:01 -17.55757 -149.61019 17 ft 4 kts 229°
2026-05-08 03:02 -17.55773 -149.61048 16 ft 5 kts 257°
2026-05-08 03:02 -17.55757 -149.61078 16 ft 3 kts 320°
2026-05-08 03:02 -17.55754 -149.61080 15 ft 0 kts 324°
2026-05-08 03:03 -17.55750 -149.61083 15 ft 3 kts 324°
2026-05-08 03:03 -17.55718 -149.61108 14 ft 8 kts 324°
2026-05-08 03:03 -17.55656 -149.61133 13 ft 11 kts 17°
2026-05-08 03:03 -17.55589 -149.61052 13 ft 18 kts 54°
2026-05-08 03:04 -17.55511 -149.60938 15 ft 21 kts 54°
2026-05-08 03:04 -17.55419 -149.60805 14 ft 24 kts 53°
2026-05-08 03:04 -17.55316 -149.60656 15 ft 26 kts 54°
2026-05-08 03:04 -17.55234 -149.60536 13 ft 28 kts 54°
2026-05-08 03:05 -17.55177 -149.60453 13 ft 29 kts 54°
2026-05-08 03:05 -17.55054 -149.60273 11 ft 31 kts 54°
2026-05-08 03:05 -17.54934 -149.60109 13 ft 13 kts 37°
2026-05-08 03:06 -17.54874 -149.60062 13 ft 8 kts 71°
2026-05-08 03:06 -17.54909 -149.60062 12 ft 8 kts 235°
2026-05-08 03:06 -17.54965 -149.60145 12 ft 31 kts 235°
2026-05-08 03:06 -17.55266 -149.60584 14 ft 115 kts 233°
2026-05-08 03:07 -17.55871 -149.61457 106 ft 169 kts 232°
2026-05-08 03:07 -17.56572 -149.62470 926 ft 176 kts 232°
2026-05-08 03:07 -17.57331 -149.63554 1517 ft 197 kts 230°
2026-05-08 03:07 -17.58133 -149.64787 2027 ft 210 kts 240°
2026-05-08 03:08 -17.58345 -149.66328 2406 ft 228 kts 284°
2026-05-08 03:08 -17.57486 -149.67723 2828 ft 235 kts 329°
2026-05-08 03:08 -17.55949 -149.68242 3285 ft 241 kts
2026-05-08 03:08 -17.54235 -149.67975 3669 ft 259 kts 21°
2026-05-08 03:09 -17.52594 -149.67137 4322 ft 266 kts 34°
2026-05-08 03:09 -17.51014 -149.66093 5134 ft 270 kts 36°
2026-05-08 03:09 -17.49483 -149.64932 5953 ft 273 kts 40°
2026-05-08 03:09 -17.47967 -149.63707 6721 ft 276 kts 40°
2026-05-08 03:10 -17.46447 -149.62461 7478 ft 279 kts 41°
2026-05-08 03:10 -17.44908 -149.61204 8206 ft 283 kts 41°
2026-05-08 03:10 -17.43865 -149.60360 8665 ft 287 kts 40°
2026-05-08 03:10 -17.41742 -149.58658 9591 ft 293 kts 39°
2026-05-08 03:11 -17.40101 -149.57355 10194 ft 301 kts 40°
2026-05-08 03:11 -17.38371 -149.55982 10378 ft 324 kts 38°
2026-05-08 03:11 -17.36513 -149.54507 10506 ft 346 kts 38°
2026-05-08 03:11 -17.34546 -149.52949 10751 ft 361 kts 40°
2026-05-08 03:12 -17.32521 -149.51348 11247 ft 367 kts 40°
2026-05-08 03:12 -17.30466 -149.49727 11792 ft 371 kts 40°
2026-05-08 03:12 -17.29095 -149.48646 12161 ft 374 kts 40°
2026-05-08 03:12 -17.27002 -149.47000 12718 ft 378 kts 38°
2026-05-08 03:13 -17.24890 -149.45341 13253 ft 382 kts 40°
2026-05-08 03:13 -17.22756 -149.43665 13789 ft 386 kts 40°
2026-05-08 03:13 -17.20599 -149.41966 14288 ft 389 kts 39°
2026-05-08 03:13 -17.18425 -149.40255 14758 ft 392 kts 38°
2026-05-08 03:14 -17.16229 -149.38528 15208 ft 396 kts 39°
2026-05-08 03:14 -17.14015 -149.36785 15714 ft 399 kts 38°
2026-05-08 03:14 -17.11788 -149.35028 16183 ft 403 kts 38°
2026-05-08 03:14 -17.09538 -149.33252 16630 ft 407 kts 39°
2026-05-08 03:15 -17.07267 -149.31463 17129 ft 410 kts 38°
2026-05-08 03:15 -17.04982 -149.29669 17635 ft 413 kts 39°
2026-05-08 03:15 -17.02671 -149.27857 18100 ft 418 kts 38°
2026-05-08 03:15 -17.00340 -149.26029 18556 ft 421 kts 38°
2026-05-08 03:16 -16.97994 -149.24191 19009 ft 423 kts 38°
2026-05-08 03:16 -16.95631 -149.22339 19424 ft 427 kts 38°
2026-05-08 03:16 -16.93241 -149.20466 19853 ft 430 kts 38°
2026-05-08 03:16 -16.90843 -149.18587 20313 ft 432 kts 38°
2026-05-08 03:17 -16.88460 -149.16721 20688 ft 436 kts 38°
2026-05-08 03:17 -16.85996 -149.14787 21085 ft 439 kts 37°
2026-05-08 03:17 -16.83585 -149.12894 21511 ft 440 kts 37°
2026-05-08 03:17 -16.81125 -149.10966 21862 ft 444 kts 38°
2026-05-08 03:18 -16.78648 -149.09024 22217 ft 446 kts 38°
2026-05-08 03:18 -16.76166 -149.07076 22612 ft 448 kts 38°
2026-05-08 03:18 -16.73657 -149.05111 22931 ft 451 kts 37°
2026-05-08 03:18 -16.71137 -149.03140 23263 ft 454 kts 37°
2026-05-08 03:19 -16.68603 -149.01160 23624 ft 455 kts 37°
2026-05-08 03:19 -16.66066 -148.99179 23870 ft 458 kts 37°
2026-05-08 03:19 -16.63510 -148.97181 24144 ft 459 kts 37°
2026-05-08 03:19 -16.60955 -148.95182 24455 ft 460 kts 37°
2026-05-08 03:20 -16.58388 -148.93172 24695 ft 463 kts 37°
2026-05-08 03:20 -16.55829 -148.91171 24931 ft 465 kts 37°
2026-05-08 03:20 -16.53237 -148.89145 25003 ft 469 kts 37°
2026-05-08 03:20 -16.50607 -148.87092 25000 ft 475 kts 37°
2026-05-08 03:21 -16.47949 -148.85021 24998 ft 476 kts 37°
2026-05-08 03:21 -16.45304 -148.82961 25000 ft 476 kts 37°
2026-05-08 03:21 -16.42646 -148.80889 25003 ft 477 kts 37°
2026-05-08 03:21 -16.39989 -148.78819 25000 ft 476 kts 37°
2026-05-08 03:22 -16.37341 -148.76754 25002 ft 476 kts 37°
2026-05-08 03:22 -16.34689 -148.74691 25004 ft 476 kts 37°
2026-05-08 03:22 -16.32031 -148.72625 25009 ft 476 kts 37°
2026-05-08 03:22 -16.29381 -148.70565 24997 ft 476 kts 37°
2026-05-08 03:23 -16.26734 -148.68501 24995 ft 476 kts 37°
2026-05-08 03:23 -16.24091 -148.66436 24998 ft 475 kts 37°
2026-05-08 03:23 -16.21441 -148.64369 24996 ft 476 kts 37°
2026-05-08 03:23 -16.18783 -148.62305 24989 ft 476 kts 37°
2026-05-08 03:24 -16.16130 -148.60247 24994 ft 475 kts 37°
2026-05-08 03:24 -16.13519 -148.58222 24992 ft 475 kts 37°
2026-05-08 03:24 -16.10838 -148.56137 24997 ft 475 kts 37°
2026-05-08 03:24 -16.08194 -148.54082 24996 ft 474 kts 37°
2026-05-08 03:25 -16.05549 -148.52034 24989 ft 474 kts 37°
2026-05-08 03:25 -16.02936 -148.50012 24990 ft 474 kts 37°
2026-05-08 03:25 -16.00295 -148.47968 24986 ft 474 kts 37°
2026-05-08 03:25 -15.97652 -148.45922 24981 ft 474 kts 37°
2026-05-08 03:26 -15.95009 -148.43877 24983 ft 471 kts 37°
2026-05-08 03:26 -15.92406 -148.41862 24993 ft 463 kts 37°
2026-05-08 03:26 -15.89743 -148.39989 24994 ft 461 kts 30°
2026-05-08 03:26 -15.86951 -148.38342 25001 ft 460 kts 29°
2026-05-08 03:27 -15.84170 -148.36703 24995 ft 460 kts 30°
2026-05-08 03:27 -15.81378 -148.35054 24995 ft 462 kts 30°
2026-05-08 03:27 -15.78567 -148.33391 24991 ft 468 kts 30°
2026-05-08 03:27 -15.75725 -148.31712 24995 ft 472 kts 30°
2026-05-08 03:28 -15.72862 -148.30016 24986 ft 473 kts 30°
2026-05-08 03:28 -15.70008 -148.28331 24997 ft 472 kts 30°
2026-05-08 03:28 -15.67150 -148.26648 24991 ft 473 kts 29°
2026-05-08 03:28 -15.64316 -148.24982 24994 ft 473 kts 30°
2026-05-08 03:29 -15.61453 -148.23295 24911 ft 473 kts 30°
2026-05-08 03:29 -15.58593 -148.21608 24550 ft 471 kts 30°
2026-05-08 03:29 -15.55747 -148.19927 23771 ft 470 kts 30°
2026-05-08 03:29 -15.52913 -148.18252 22931 ft 468 kts 30°
2026-05-08 03:30 -15.47302 -148.14948 21456 ft 459 kts 30°
2026-05-08 03:30 -15.41793 -148.11711 20003 ft 452 kts 30°
2026-05-08 03:31 -15.36364 -148.08522 18647 ft 445 kts 30°
2026-05-08 03:31 -15.31015 -148.05386 17287 ft 437 kts 30°
2026-05-08 03:32 -15.28379 -148.03845 16694 ft 432 kts 31°
2026-05-08 03:32 -15.25776 -148.02322 16080 ft 429 kts 31°
2026-05-08 03:32 -15.23185 -148.00804 15448 ft 426 kts 31°
2026-05-08 03:32 -15.20615 -147.99299 14815 ft 424 kts 31°
2026-05-08 03:33 -15.18053 -147.97793 14157 ft 423 kts 32°
2026-05-08 03:33 -15.15499 -147.96290 13471 ft 421 kts 32°
2026-05-08 03:33 -15.12976 -147.94810 12875 ft 414 kts 32°
2026-05-08 03:33 -15.10467 -147.93338 12300 ft 409 kts 32°
2026-05-08 03:34 -15.08010 -147.91899 11708 ft 403 kts 32°
2026-05-08 03:34 -15.05587 -147.90481 11225 ft 395 kts 32°
2026-05-08 03:34 -15.03283 -147.89136 11054 ft 364 kts 33°
2026-05-08 03:34 -15.01370 -147.87629 10906 ft 330 kts 51°
2026-05-08 03:35 -15.00159 -147.85754 10755 ft 301 kts 69°
2026-05-08 03:35 -14.99609 -147.83762 10363 ft 286 kts 85°
2026-05-08 03:35 -14.99681 -147.81756 10103 ft 277 kts 102°
2026-05-08 03:35 -15.00199 -147.79833 9900 ft 278 kts 107°
2026-05-08 03:36 -15.00756 -147.77919 9778 ft 278 kts 106°
2026-05-08 03:36 -15.01309 -147.76002 9625 ft 278 kts 106°
2026-05-08 03:36 -15.01863 -147.74084 9211 ft 279 kts 106°
2026-05-08 03:36 -15.02417 -147.72159 8864 ft 277 kts 106°
2026-05-08 03:37 -15.02966 -147.70241 8443 ft 279 kts 106°
2026-05-08 03:37 -15.03511 -147.68341 8128 ft 272 kts 106°
2026-05-08 03:37 -15.04047 -147.66477 7527 ft 269 kts 106°
2026-05-08 03:37 -15.04577 -147.64640 7009 ft 264 kts 106°
2026-05-08 03:38 -15.05099 -147.62832 6563 ft 260 kts 106°
2026-05-08 03:38 -15.05612 -147.61047 6126 ft 258 kts 106°
2026-05-08 03:38 -15.06123 -147.59267 5691 ft 257 kts 106°
2026-05-08 03:38 -15.06633 -147.57499 5265 ft 256 kts 106°
2026-05-08 03:39 -15.07136 -147.55758 4996 ft 245 kts 106°
2026-05-08 03:39 -15.07604 -147.54129 4812 ft 228 kts 105°
2026-05-08 03:39 -15.07724 -147.52550 4700 ft 223 kts 78°
2026-05-08 03:39 -15.07004 -147.51208 4565 ft 211 kts 45°
2026-05-08 03:40 -15.05730 -147.50504 4366 ft 211 kts 18°
2026-05-08 03:40 -15.04311 -147.50123 4080 ft 211 kts 20°
2026-05-08 03:40 -15.02898 -147.49698 3801 ft 211 kts 21°
2026-05-08 03:40 -15.01464 -147.49432 3451 ft 212 kts 355°
2026-05-08 03:41 -15.00192 -147.50123 3143 ft 210 kts 309°
2026-05-08 03:41 -14.99693 -147.51483 2846 ft 201 kts 276°
2026-05-08 03:41 -14.99455 -147.52877 2598 ft 191 kts 286°
2026-05-08 03:41 -14.99025 -147.54099 2438 ft 172 kts 292°
2026-05-08 03:42 -14.98584 -147.55216 2145 ft 165 kts 289°
2026-05-08 03:42 -14.98248 -147.56344 1776 ft 163 kts 285°
2026-05-08 03:42 -14.97948 -147.57444 1566 ft 160 kts 285°
2026-05-08 03:42 -14.97644 -147.58552 1376 ft 159 kts 286°
2026-05-08 03:43 -14.97330 -147.59627 1218 ft 154 kts 287°
2026-05-08 03:43 -14.97010 -147.60682 962 ft 154 kts 287°
2026-05-08 03:43 -14.96687 -147.61735 717 ft 157 kts 286°
2026-05-08 03:43 -14.96379 -147.62836 494 ft 159 kts 286°
2026-05-08 03:44 -14.96060 -147.63934 308 ft 160 kts 286°
2026-05-08 03:44 -14.95741 -147.65022 62 ft 156 kts 286°
2026-05-08 03:44 -14.95447 -147.66009 121 ft 141 kts 287°
2026-05-08 03:44 -14.95154 -147.67053 558 ft 163 kts 284°
2026-05-08 03:45 -14.95317 -147.68220 1100 ft 169 kts 238°
2026-05-08 03:45 -14.95953 -147.69283 1407 ft 172 kts 234°
2026-05-08 03:45 -14.96558 -147.70317 1652 ft 162 kts 238°
2026-05-08 03:45 -14.96853 -147.71443 1866 ft 169 kts 268°
2026-05-08 03:46 -14.96788 -147.72679 1863 ft 181 kts 273°
2026-05-08 03:46 -14.96479 -147.73909 1823 ft 175 kts 306°
2026-05-08 03:46 -14.95578 -147.74561 1568 ft 152 kts 357°
2026-05-08 03:46 -14.94633 -147.74347 1268 ft 142 kts 44°
2026-05-08 03:47 -14.94123 -147.73507 1057 ft 138 kts 76°
2026-05-08 03:47 -14.93920 -147.72530 1091 ft 141 kts 81°
2026-05-08 03:47 -14.93855 -147.71591 915 ft 127 kts 100°
2026-05-08 03:47 -14.94068 -147.70685 774 ft 134 kts 108°
2026-05-08 03:48 -14.94345 -147.69759 584 ft 138 kts 109°
2026-05-08 03:48 -14.94636 -147.68804 428 ft 142 kts 107°
2026-05-08 03:48 -14.94914 -147.67842 226 ft 136 kts 107°
2026-05-08 03:48 -14.95173 -147.66951 36 ft 124 kts 107°
2026-05-08 03:49 -14.95390 -147.66208 22 ft 85 kts 107°
2026-05-08 03:49 -14.95528 -147.65737 12 ft 55 kts 107°
2026-05-08 03:49 -14.95615 -147.65437 14 ft 35 kts 107°
2026-05-08 03:49 -14.95676 -147.65231 16 ft 19 kts 107°
2026-05-08 03:50 -14.95707 -147.65184 16 ft 5 kts 132°
2026-05-08 03:50 -14.95688 -147.65168 18 ft 7 kts 327°
2026-05-08 03:50 -14.95671 -147.65244 14 ft 14 kts 286°
2026-05-08 03:50 -14.95640 -147.65352 14 ft 17 kts 286°
2026-05-08 03:51 -14.95605 -147.65473 15 ft 19 kts 287°
2026-05-08 03:51 -14.95563 -147.65614 11 ft 22 kts 287°
2026-05-08 03:51 -14.95525 -147.65752 12 ft 7 kts 280°
2026-05-08 03:51 -14.95555 -147.65788 12 ft 8 kts 197°
2026-05-08 03:52 -14.95615 -147.65791 12 ft 10 kts 167°
2026-05-08 03:52 -14.95664 -147.65772 12 ft 3 kts 160°
2026-05-08 03:52 -14.95681 -147.65780 12 ft 3 kts 228°
2026-05-08 03:52 -14.95675 -147.65785 16 ft 1 kts 319°
2026-05-08 03:53 -14.95671 -147.65787 15 ft 0 kts 332°